Change the Weather History Date:

Saturday, February 2, 2013

  Actual Average Record
Temperature  
Mean Temperature 49 °F -  
Max Temperature 57 °F 57 °F 68 °F (2000)
Min Temperature 41 °F 35 °F 22 °F (2015)
Degree Days  
Heating Degree Days 16    
Moisture  
Dew Point 37 °F    
Average Humidity 64    
Maximum Humidity 100    
Minimum Humidity 33    
Precipitation  
Precipitation 0.00 in 0.06 in - ()
Sea Level Pressure  
Sea Level Pressure 29.63 in    
Wind  
Wind Speed 3 mph ()    
Max Wind Speed 10 mph    
Max Gust Speed -    
Visibility 6.7 miles    
Events Rain    
Averages and records for this station are not official NWS values.
T = Trace of Precipitation, MM = Missing Value Source: Averaged Metar Reports

Daily Weather History Graph

Daily Weather History Graph

Search for Another Location

Airport or City:

Trip Planner

Search our weather history database for the weather conditions in past years. The results will help you decide how hot, cold, wet, or windy it might be!

Date:

Astronomy

Feb. 02, 2013 Rise Set
Actual Time 8:00 AM CET 6:05 PM CET
Civil Twilight 7:31 AM CET 6:34 PM CET
Nautical Twilight 6:57 AM CET 7:08 PM CET
Astronomical Twilight 6:25 AM CET 7:40 PM CET
Moon 12:01 AM CET (2/2) 10:53 AM CET (2/2)
Length of Visible Light 11h 03m
Length of Day
10h 04m
Waning Gibbous, 62% of the Moon is Illuminated
Feb 2
Waning Gibbous
Feb 3
Last Quarter
Feb 10
New
Feb 17
First Quarter
Feb 25
Full

Hourly Weather History & Observations

Time (CET) Temp. Windchill Dew Point Humidity Pressure Visibility Wind Dir Wind Speed Gust Speed Precip Events Conditions
12:00 AM 51.8 °F - 42.8 °F 71% 29.65 in 6.2 mi Calm Calm - N/A   Partly Cloudy
12:30 AM 48.2 °F - 42.8 °F 82% 29.65 in 6.2 mi South 3.5 mph - N/A   Partly Cloudy
1:00 AM 54 °F - 43 °F 57% 29.61 in 12 mi WNW 6.9 mph - -   Scattered Clouds
1:00 AM 51.8 °F - 42.8 °F 71% 29.62 in 6.2 mi WNW 5.8 mph - N/A   Scattered Clouds
1:30 AM 51.8 °F - 41.0 °F 67% 29.59 in 6.2 mi Variable 2.3 mph - N/A   Scattered Clouds
2:00 AM 50.0 °F - 42.8 °F 76% 29.59 in 6.2 mi SW 3.5 mph - N/A   Scattered Clouds
2:30 AM 51.8 °F - 41.0 °F 67% 29.56 in 6.2 mi Variable 1.2 mph - N/A   Partly Cloudy
3:00 AM 51.8 °F - 41.0 °F 67% 29.56 in 6.2 mi NE 1.2 mph - N/A   Scattered Clouds
3:30 AM 51.8 °F - 41.0 °F 67% 29.56 in 6.2 mi Variable 1.2 mph - N/A   Scattered Clouds
4:00 AM 51.8 °F - 42.8 °F 71% 29.53 in 6.2 mi Variable 2.3 mph - N/A   Scattered Clouds
4:30 AM 50.0 °F - 42.8 °F 76% 29.53 in 6.2 mi ESE 4.6 mph - N/A Rain Rain
5:00 AM 50.0 °F - 46.4 °F 87% 29.50 in 6.2 mi SSE 4.6 mph - N/A Rain Light Rain
5:30 AM 50.0 °F - 48.2 °F 94% 29.53 in 6.2 mi Calm Calm - N/A Rain Light Rain
6:00 AM 50.0 °F - 50.0 °F 100% 29.53 in 6.2 mi WSW 5.8 mph - N/A Rain Rain
6:30 AM 50.0 °F - 48.2 °F 94% 29.50 in 6.2 mi ESE 6.9 mph - N/A   Scattered Clouds
7:00 AM 50 °F - 47 °F 87% 29.52 in 11 mi Calm Calm - - Rain Light Rain
7:00 AM 48.2 °F - 48.2 °F 100% 29.50 in 6.2 mi Calm Calm - N/A   Scattered Clouds
7:30 AM 48.2 °F - 48.2 °F 100% 29.53 in 6.2 mi NE 3.5 mph - N/A   Scattered Clouds
8:00 AM 48.2 °F - 48.2 °F 100% 29.56 in 6.2 mi Calm Calm - N/A   Mostly Cloudy
8:10 AM 48.2 °F - 46.4 °F 93% 29.56 in 6.2 mi Variable 1.2 mph - N/A Rain Rain
8:30 AM 46.4 °F - 46.4 °F 100% 29.56 in 6.2 mi SW 1.2 mph - N/A Rain Light Rain
9:00 AM 46.4 °F - 46.4 °F 100% 29.59 in 6.2 mi Calm Calm - N/A   Mostly Cloudy
9:30 AM 46.4 °F - 42.8 °F 87% 29.59 in 6.2 mi Variable 2.3 mph - N/A   Scattered Clouds
10:00 AM 46.4 °F 41.9 °F 32.0 °F 57% 29.62 in 6.2 mi NE 9.2 mph - N/A   Scattered Clouds
10:30 AM 46.4 °F 41.9 °F 32.0 °F 57% 29.62 in 6.2 mi NE 9.2 mph - N/A   Scattered Clouds
11:00 AM 48.2 °F - 32.0 °F 54% 29.62 in 6.2 mi Variable 1.2 mph - N/A   Scattered Clouds
11:30 AM 50.0 °F - 32.0 °F 50% 29.62 in 6.2 mi Variable 2.3 mph - N/A   Scattered Clouds
12:00 PM 51.8 °F - 32.0 °F 47% 29.62 in 6.2 mi Calm Calm - N/A   Scattered Clouds
12:30 PM 51.8 °F - 32.0 °F 47% 29.62 in 6.2 mi Variable 1.2 mph - N/A   Scattered Clouds
1:00 PM 55 °F - 37 °F 39% 29.62 in 16 mi South 6.9 mph - -   Partly Cloudy
1:00 PM 51.8 °F - 32.0 °F 47% 29.62 in 6.2 mi South 3.5 mph - N/A   Scattered Clouds
1:30 PM 51.8 °F - 35.6 °F 54% 29.62 in 6.2 mi South 4.6 mph - N/A   Scattered Clouds
2:00 PM 53.6 °F - 35.6 °F 51% 29.62 in 6.2 mi South 4.6 mph - N/A   Scattered Clouds
2:30 PM 53.6 °F - 37.4 °F 54% 29.62 in 6.2 mi Variable 2.3 mph - N/A   Scattered Clouds
3:00 PM 53.6 °F - 39.2 °F 58% 29.62 in 6.2 mi SSW 3.5 mph - N/A   Scattered Clouds
3:30 PM 53.6 °F - 33.8 °F 47% 29.62 in 6.2 mi Variable 1.2 mph - N/A   Scattered Clouds
4:00 PM 55.4 °F - 35.6 °F 47% 29.65 in 6.2 mi Variable 1.2 mph - N/A   Scattered Clouds
4:30 PM 51.8 °F - 32.0 °F 47% 29.65 in 6.2 mi NE 10.4 mph - N/A   Scattered Clouds
5:00 PM 51.8 °F - 32.0 °F 47% 29.65 in 6.2 mi NNE 6.9 mph - N/A   Scattered Clouds
5:30 PM 51.8 °F - 24.8 °F 35% 29.65 in 6.2 mi NNW 4.6 mph - N/A   Scattered Clouds
6:00 PM 51.8 °F - 23.0 °F 33% 29.68 in 6.2 mi North 10.4 mph - N/A   Scattered Clouds
6:30 PM 50.0 °F - 24.8 °F 37% 29.71 in 6.2 mi North 8.1 mph - N/A   Scattered Clouds
7:00 PM 50 °F - 30 °F 33% 29.73 in 12 mi WNW 6.9 mph - -   Partly Cloudy
7:00 PM 48.2 °F - 28.4 °F 46% 29.71 in 6.2 mi WNW 5.8 mph - N/A   Mostly Cloudy
7:30 PM 46.4 °F 43.5 °F 28.4 °F 50% 29.74 in 6.2 mi NW 5.8 mph - N/A   Scattered Clouds
8:00 PM 46.4 °F 42.9 °F 30.2 °F 53% 29.74 in 6.2 mi WNW 6.9 mph - N/A   Mostly Cloudy
8:30 PM 46.4 °F 43.5 °F 30.2 °F 53% 29.77 in 6.2 mi NW 5.8 mph - N/A   Mostly Cloudy
9:00 PM 44.6 °F 42.2 °F 30.2 °F 57% 29.77 in 6.2 mi ENE 4.6 mph - N/A   Scattered Clouds
9:30 PM 46.4 °F 42.9 °F 28.4 °F 50% 29.77 in 6.2 mi East 6.9 mph - N/A   Scattered Clouds
10:00 PM 41.0 °F - 28.4 °F 61% 29.80 in 6.2 mi Calm Calm - N/A   Scattered Clouds
10:30 PM 42.8 °F - 28.4 °F 57% 29.80 in 6.2 mi Variable 2.3 mph - N/A   Scattered Clouds
11:00 PM 42.8 °F 39.3 °F 26.6 °F 53% 29.83 in 6.2 mi North 5.8 mph - N/A   Scattered Clouds
11:30 PM 41.0 °F 35.2 °F 28.4 °F 61% 29.83 in 6.2 mi NE 9.2 mph - N/A   Scattered Clouds